{"data":{"norad_id":82798,"intl_designator":"","name":"UNKNOWN","alt_names":[],"object_type":"UNKNOWN","status":"UNKNOWN","operator":null,"country":null,"launch_date":null,"launch_site_code":null,"launch_vehicle":null,"mission":null,"orbit_class":"UNKNOWN","rcs_meters":null,"size_class":null,"mass_kg":null,"dimensions":null,"purposes":[],"wikipedia_slug":null,"has_3d_model":false,"image_url":null,"decayed_at":null,"tle_current":{"epoch":"2026-05-18T01:39:40.703040Z","epoch_age_seconds":684420,"freshness":"AGED","line1":"1 82798U          26138.06922110  .00001233  00000+0  53119-3 0  9995","line2":"2 82798  82.9499  66.4223 0032544  57.1113 322.0063 14.23609079334610","mean_motion":14.23609079,"eccentricity":0.0032544,"inclination_deg":82.9499,"raan_deg":66.4223,"arg_perigee_deg":57.1113,"mean_anomaly_deg":322.0063,"bstar":0.00053119,"rev_number":33461,"period_min":101.15136389911,"perigee_km":789.76956923441,"apogee_km":836.5763675567,"semimajor_km":7191.3099683956,"source":"CELESTRAK","updated_at":"2026-05-25T13:38:11.195652Z"}}}